Progress MS-31

operational
NORAD ID: 64751 Int'l Des: 2025-146 Owner: RKKE Country: RU
LEOCIRCULAR

About Progress MS-31

Description loading...

Live Position

Loading 3D Globe...

Upcoming Passes

Altitude History

Altitude vs Time

uPlot chart will show altitude changes over time

Two-Line Element Set

1 64751U 25146A 26063.15679535 .00010207 00000-0 19684-3 0 9990
2 64751 51.6316 99.7104 0008201 155.0339 205.1047 15.48434477555713
Epoch: Mar 4, 2026 • Age: 19 hours

Current Status

Altitude 428.6 km
Velocity 7.65 km/s
Sub-Earth Point -7.13°S, 0.11°E
Launch Date Jul 3, 2025
Age 0.6 years
Type other

Technical Details

Classification Payload
Mass 4909.00 kg
Dry Mass 4325.00 kg
Total Mass 7427.00 kg
Length 7.90 m
Diameter 2.70 m
Span 7.90 m
Shape Cyl + Sphere + Cone + 2 Pan
Manufacturer PROGT
Bus Type 7K-TGM
Phase Status Docked
Owner/State RKKE/RU

Large Constellations

Loading constellations...